Rochester, MN
on Monday, June 10, 2013

Monday
Previous Day Next Day
Daily Summary
 ActualAverageRecord
Temperature
Mean Temperature °F 66°F  
Max Temperature 76°F 77°F 96°F (1911)
Min Temperature 59°F 56°F 36°F (1972)
Degree Days
Heating Degree Days 0 2  
Month to date heating degree days 60 31  
Since 1 June heating degree days 60  
Since 1 July heating degree days 7825 7701  
Cooling Degree Days 3 3  
Month to date cooling degree days 3 26  
Year to date cooling degree days 33 60  
Since 1 June cooling degree days 3  
Growing Degree Days17 (Base °F )  
Moisture
Dew Point 59°F   
Average Humidity 79    
Maximum Humidity 97    
Minimum Humidity 60    
Precipitation
Precipitation 0.00 in 0.16 in 1.55 in (1961)
Month to date precipitation 0.74 1.52  
Year to date precipitation 24.64 11.96  
Since 1 June precipitation 0.74 1.52  
Snow
Snow 0.00 in 0.00 in 0.00 in (2012)
Month to date snowfall 0.0 0.0  
Since 1 June snowfall 0.0  
Since 1 July snowfall 74.0 51.9  
Snow Depth 0.00 in   
Wind
Wind Speed 3 mph   
Max Wind Speed 9 mph   
Max Gust Speed 12 mph   
Visibility 6 miles   
Events Fog   

Key: T is trace of precipitation, MM is missing value
Source: NWS Daily Summary
Time(CDT)TemperatureDew PointHumidity Pressure Visibility Wind DirectionWind SpeedGust SpeedPrecipitationEvents Conditions
12:54 AM 62.1°F 60.1°F 93% 29.83 in 5.0 miles East 5.8 mph - N/A   Overcast
1:54 AM 60.1°F 59.0°F 96% 29.82 in 4.0 miles ESE 3.5 mph - N/A   Clear
2:09 AM 60.8°F 57.2°F 88% 29.83 in 4.0 miles NNW 3.5 mph - N/A   Scattered Clouds
2:18 AM 60.8°F 59.0°F 94% 29.83 in 4.0 miles Calm Calm - N/A   Mostly Cloudy
2:54 AM 61.0°F 59.0°F 93% 29.81 in 4.0 miles Calm Calm - N/A   Overcast
3:12 AM 60.8°F 59.0°F 94% 29.81 in 3.0 miles Calm Calm - N/A   Overcast
3:29 AM 60.8°F 59.0°F 94% 29.81 in 3.0 miles Calm Calm - N/A   Mostly Cloudy
3:32 AM 60.8°F 57.2°F 88% 29.82 in 2.5 miles Calm Calm - N/A   Mostly Cloudy
3:41 AM 60.8°F 59.0°F 94% 29.82 in 3.0 miles Calm Calm - N/A   Mostly Cloudy
3:45 AM 59.0°F 57.2°F 94% 29.82 in 1.8 miles Calm Calm - N/A   Mostly Cloudy
3:54 AM 60.1°F 57.9°F 93% 29.81 in 1.8 miles Calm Calm - N/A   Overcast
4:01 AM 60.8°F 57.2°F 88% 29.82 in 2.5 miles Calm Calm - N/A   Overcast
4:24 AM 60.8°F 59.0°F 94% 29.82 in 1.2 miles Calm Calm - N/A   Overcast
4:27 AM 60.8°F 59.0°F 94% 29.82 in 0.8 miles Calm Calm - N/A   Overcast
4:54 AM 59.0°F 57.9°F 96% 29.81 in 0.8 miles Calm Calm - N/A   Overcast
5:04 AM 60.8°F 57.2°F 88% 29.82 in 0.5 miles Calm Calm - N/A Fog Fog
5:23 AM 60.8°F 57.2°F 88% 29.83 in 1.0 miles NW 4.6 mph - N/A   Overcast
5:41 AM 60.8°F 59.0°F 94% 29.83 in 2.0 miles West 3.5 mph - N/A   Overcast
5:54 AM 60.1°F 57.9°F 93% 29.82 in 3.0 miles WSW 4.6 mph - N/A   Overcast
6:24 AM 60.8°F 59.0°F 94% 29.84 in 0.5 miles Calm Calm - N/A   Overcast
6:32 AM 60.8°F 59.0°F 94% 29.84 in 1.0 miles Calm Calm - N/A   Overcast
6:46 AM 60.8°F 59.0°F 94% 29.84 in 2.0 miles Calm Calm - N/A   Overcast
6:54 AM 61.0°F 59.0°F 93% 29.83 in 3.0 miles Calm Calm - N/A   Overcast
7:54 AM 63.0°F 59.0°F 87% 29.84 in 7.0 miles Calm Calm - N/A   Overcast
8:54 AM 63.0°F 59.0°F 87% 29.86 in 8.0 miles NW 3.5 mph - N/A   Overcast
9:13 AM 64.4°F 59.0°F 83% 29.86 in 7.0 miles WNW 4.6 mph - N/A   Overcast
9:42 AM 64.4°F 60.8°F 88% 29.88 in 8.0 miles WNW 5.8 mph - N/A   Overcast
9:50 AM 64.4°F 60.8°F 88% 29.88 in 7.0 miles West 5.8 mph - N/A   Overcast
9:54 AM 64.0°F 60.1°F 87% 29.87 in 7.0 miles West 6.9 mph - N/A   Overcast
10:54 AM 64.9°F 59.0°F 81% 29.88 in 9.0 miles NW 4.6 mph - N/A   Overcast
11:54 AM 66.0°F 59.0°F 78% 29.88 in 9.0 miles NW 4.6 mph - N/A   Overcast
12:32 PM 69.8°F 60.8°F 73% 29.88 in 10.0 miles North 4.6 mph - N/A   Overcast
12:54 PM 70.0°F 60.1°F 71% 29.86 in 10.0 miles Calm Calm - N/A   Overcast
1:14 PM 69.8°F 60.8°F 73% 29.87 in 10.0 miles North 5.8 mph - N/A   Overcast
1:54 PM 70.0°F 60.1°F 71% 29.86 in 10.0 miles NW 5.8 mph - N/A   Mostly Cloudy
2:54 PM 72.0°F 60.1°F 66% 29.85 in 10.0 miles WNW 3.5 mph - N/A   Overcast
3:54 PM 73.0°F 61.0°F 66% 29.86 in 8.0 miles NW 4.6 mph - N/A   Mostly Cloudy
4:54 PM 73.9°F 60.1°F 62% 29.85 in 8.0 miles SW 3.5 mph - 0.00 in   Partly Cloudy
5:54 PM 75.0°F 60.1°F 60% 29.84 in 8.0 miles WSW 4.6 mph - N/A   Partly Cloudy
6:54 PM 73.9°F 59.0°F 59% 29.85 in 8.0 miles WNW 4.6 mph - N/A   Partly Cloudy
7:54 PM 73.0°F 59.0°F 61% 29.85 in 6.0 miles Calm Calm - N/A   Haze
8:54 PM 69.1°F 61.0°F 75% 29.85 in 10.0 miles WSW 3.5 mph - N/A   Clear
9:54 PM 66.9°F 60.1°F 79% 29.86 in 10.0 miles West 3.5 mph - N/A   Clear
10:54 PM 64.9°F 59.0°F 81% 29.88 in 10.0 miles Calm Calm - N/A   Clear
11:54 PM 63.0°F 59.0°F 87% 29.88 in 10.0 miles South 3.5 mph - N/A   Clear
Astronomy
Sunrise:05:27 AM (CDT) Moon Rise:07:19 AM (CDT)6/10
Sunset:08:51 PM (CDT) Moon Set:10:15 PM (CDT)6/10
Moon Phase
Jun. 10 Jun. 16 Jun. 23 Jun. 30 Jul. 08

Copyright © 2016 The Weather Underground, Inc.